Location: Kampong Paya Jaras Dalam
(3.1833°N, 101.5500°E)
Time: 04:46:16
(UTC+00:00)

Sich 1 Rocket - Pass Details

Date: 15 May 2026
Orbit: 612 x 645 km, 82.5° (Epoch: 7 June)

Event Time Altitude Azimuth Distance (km) Brightness Sun altitude
Rises 12:33:18 0° 186° (S) 2,881 6.8 -18.5°
Reaches altitude 10° 12:35:32 10° 188° (S) 1,971 6.0 -19.0°
Maximum altitude 12:39:53 77° 273° (W) 629 3.6 -20.0°
Drops below altitude 10° 12:44:12 10° 360° (N) 1,958 6.4 -21.0°
Sets 12:46:25 0° 1° (N) 2,860 7.2 -21.5°
